Location: Étang Rond
(42.7927°N, 1.0661°E)
Time: 00:20:05
(UTC+00:00)

Daily predictions for brighter satellites

Satellite Brightness Start Highest point End
(mag) Time Altitude Azimuth Time Altitude Azimuth Time Altitude Azimuth
Cosmos 2219 Rocket 4.4 02:55:06 20° NE 02:55:06 20° NE 02:56:53 10° NE
USA 267 3.8 03:15:33 10° NE 03:20:18 52° NE 03:20:18 52° NE
Cosmos 2333 Rocket 4.3 03:39:30 17° N 03:39:30 17° N 03:40:53 10° NNE
COSMOS 2455 4.3 03:45:06 26° N 03:45:06 26° N 03:47:55 10° NNE
ACS3 Solar Sail 3.0 03:45:08 10° N 03:47:53 29° N 03:47:53 29° N
Cosmos 2360 Rocket 3.9 03:59:09 21° N 03:59:09 21° N 04:01:13 10° NNE
Cosmos 2322 Rocket 4.0 03:59:31 19° N 03:59:31 19° N 04:01:21 10° N
USA 234 3.3 03:50:58 10° ESE 03:57:29 74° NE 03:58:53 56° NNW
Gbstr 26 Del rocket 3.8 03:59:16 57° E 03:59:16 57° E 04:03:55 10° ENE
SL-16 R/B 4.4 04:06:02 12° N 04:06:02 12° N 04:06:40 10° N
Meteor 2-14 Rocket 4.5 04:03:52 10° S 04:09:57 77° E 04:16:03 10° N
Cosmos 1943 Rocket 3.8 04:06:18 11° N 04:11:02 31° NE 04:15:51 10° ESE
ARGOS 3.2 04:11:29 10° N 04:16:17 65° NNW 04:16:17 65° NNW
PAYLOAD A 4.0 04:12:19 10° NNE 04:17:45 86° ESE 04:20:29 30° SSW
Cosmos 1140 Rocket 4.2 04:15:56 19° N 04:19:27 51° ENE 04:24:24 10° SE
Cosmos 1809 Rocket 4.3 04:15:46 10° S 04:21:53 83° W 04:28:00 10° N
CZ-2C R/B 2.5 04:17:13 10° N 04:21:32 62° NNW 04:21:32 62° NNW
ADEOS Rocket 4.0 04:21:19 10° N 04:25:40 33° NW 04:25:40 33° NW
NOSS 3-1 (C) 2.7 04:27:25 75° WNW 04:27:34 76° NW 04:33:03 10° NE
Cosmos 2100 Rocket 3.9 04:27:32 10° N 04:33:43 88° E 04:39:53 10° S
Cosmos 2219 Rocket 3.1 04:36:50 30° NNW 04:36:50 30° NNW 04:40:44 10° N
NOSS 0 Rocket 4.2 04:35:47 10° SSW 04:41:51 69° ESE 04:47:58 10° NNE
IRS-1D 4.0 04:37:22 10° NNE 04:42:16 57° E 04:47:06 10° S
COSMOS 2428 2.6 04:41:30 22° SSW 04:45:19 73° WNW 04:51:02 10° NNE
USA 59 Rocket 1.1 04:50:48 21° N 04:50:48 21° N 04:52:02 10° NNE
Cosmos 2322 3.7 04:50:01 29° SW 04:52:50 55° WNW 04:58:25 10° NNE
SL-08 RB Rocket 4.0 04:49:27 10° N 04:53:29 41° WNW 04:53:29 41° WNW
Cosmos 1459 Rocket 3.9 04:48:36 10° NNW 04:54:58 72° W 05:01:14 10° S
Cosmos 1864 Rocket 4.5 04:49:33 10° N 04:55:51 88° E 05:02:12 10° S
COSMO-SKYMED 1 3.6 04:53:30 10° SE 04:57:23 43° ENE 05:01:18 10° N
Meteor 2-21 4.4 04:51:34 10° SSW 04:57:34 59° WNW 05:03:34 10° N
SKYMED 2 4.0 04:54:21 10° SSE 04:58:38 65° ENE 05:02:57 10° N
FengYun 1-2 T 4.1 04:53:18 10° NNE 04:58:52 79° WNW 05:04:27 10° SSW
Cosmos 1727 Rocket 4.3 04:54:23 10° SW 05:00:10 41° WNW 05:06:02 10° N
Cosmos 407 Rocket 3.9 04:56:22 10° NNW 05:01:26 61° ENE 05:06:28 10° SSE
Cosmos 1023 Rocket 4.4 04:58:46 17° NNW 05:02:32 62° WSW 05:07:30 10° S
USA 267 4.0 04:58:49 10° NE 05:04:36 35° NNW 05:07:38 23° WNW
Cosmos 1980 3.9 04:59:29 10° SSW 05:05:05 75° ESE 05:10:46 10° NNE
Cosmos 1725 Rocket 4.0 04:59:03 10° N 05:05:25 87° W 05:11:43 10° S
NOSS 3-1 (A) 2.8 05:07:07 10° SW 05:11:43 84° NW 05:17:13 10° NE
Cosmos 1802 Rocket 3.9 05:06:58 10° NNW 05:13:17 69° W 05:19:29 10° S
Cosmos 1269 Rocket 4.2 05:09:27 15° NW 05:13:34 46° WSW 05:18:35 10° S
Cosmos 1328 3.9 05:11:09 10° SSW 05:14:34 39° WNW 05:18:01 10° N
Cosmos 1703 Rocket 3.6 05:11:40 10° SSW 05:15:54 53° W 05:20:12 10° N
Cosmos 921 Rocket 4.2 05:16:56 23° WSW 05:16:56 23° WSW 05:19:57 10° SSW
Cosmos 2233 Rocket 4.2 05:10:17 10° N 05:16:38 79° E 05:22:53 10° S
Cosmos 2278 Rocket 2.1 05:12:45 10° NNW 05:18:26 85° WSW 05:24:05 10° SSE
NOSS 2-1 (E) 3.9 05:18:52 27° NW 05:18:58 27° NW 05:21:46 10° NNE
Meteor 2-16 Rocket 4.4 05:14:07 10° SSW 05:20:09 66° W 05:26:15 10° N
Cosmos 2251 Rocket 4.4 05:15:03 10° N 05:20:16 51° ENE 05:25:28 10° SE
CZ-3 R/B 3.7 05:11:12 10° SW 05:20:52 24° S 05:25:36 10° SE
Cosmos 2237 Rocket 2.2 05:15:42 10° SSW 05:21:22 88° WNW 05:27:04 10° NNE
Cosmos 1939 Rocket 3.7 05:19:43 10° NNW 05:22:57 26° WNW 05:23:41 24° W
Cosmos 2173 Rocket 4.3 05:18:34 10° NNW 05:24:07 38° W 05:29:40 10° SSW
Cosmos 2292 Rocket 3.6 05:22:21 10° SSW 05:26:20 63° W 05:31:31 10° N
SL-08 R/B 4.4 05:21:23 10° NNW 05:27:29 73° W 05:33:38 10° S
BlueWalker 3 1.9 05:27:40 23° WNW 05:29:41 57° SW 05:33:13 10° SE
USA 276 2.1 05:29:39 30° W 05:30:35 45° SW 05:33:16 10° SE
Meteor 1-24 Rocket 4.0 05:25:28 10° SSW 05:30:59 44° WNW 05:36:20 10° N
Helios 1A Rocket 2.6 05:28:32 10° S 05:31:50 49° W 05:35:08 10° NNW
ACS3 Solar Sail 3.6 05:31:16 10° NW 05:32:02 11° NW 05:32:02 11° NW
Cosmos 2369 Rocket 4.4 05:31:30 10° N 05:35:48 21° NE 05:40:05 10° E
CZ-4 R/B 4.1 05:32:53 10° N 05:37:34 46° WNW 05:42:08 10° SW
Cosmos 1782 Rocket 3.5 05:35:19 10° NNW 05:39:40 60° W 05:43:56 10° S
USA 234 4.0 05:35:01 10° S 05:40:48 33° SW 05:46:14 12° WNW
Cosmos 2123 Rocket 4.4 05:35:59 10° SW 05:41:41 37° WNW 05:47:24 10° N
Meteor 2-5 Rocket 4.2 05:36:37 10° SW 05:42:10 40° WNW 05:47:41 10° N
Cosmos 1420 Rocket 4.0 05:38:15 10° SSW 05:43:30 81° WNW 05:48:50 10° NNE
Gbstr 26 Del rocket 4.2 05:41:19 15° W 05:45:19 41° NNW 05:51:08 10° NE
NOAA 12 4.3 05:41:48 10° N 05:46:53 47° WNW 05:51:56 10° SW
Cosmos 44 Rocket 4.2 05:43:41 11° NW 05:47:53 31° WSW 05:52:23 10° S
CENTAUR R/B 4.5 05:41:47 10° NNW 05:49:08 36° NE 05:57:26 10° ESE
ARIANE 5 R/B 4.5 05:47:50 10° NNE 05:52:25 34° E 05:57:01 10° SSE
Cosmos 1943 Rocket 2.6 05:49:42 10° NW 05:54:50 40° WSW 05:59:55 10° S
Cosmos 2016 Rocket 4.5 05:49:37 10° NNW 05:55:26 39° W 06:01:13 10° SSW
Cosmos 1812 3.0 05:55:43 10° N 05:58:34 48° E 06:01:24 10° SSE
Cosmos 1300 Rocket 4.3 05:56:12 10° NNW 06:00:03 31° W 06:03:50 10° SSW
Cosmos 2346 Rocket 4.5 05:54:12 10° SSW 06:00:19 67° W 06:06:25 10° N
SMAP 4.1 05:56:43 10° NNE 06:01:16 51° E 06:05:47 10° S
